RH
35 34 28 31 44 62 66 75 85 70 61 67 68 71 80 76 68 67 64 62 63 57 59 64 57 50 50 54 53 44 38 32
45 40 36 40 51 63 67 79 87 83 76 71 71 71 63 67 63 64 63 58 58 57 52 54 54 46 54 53 47 40 38 36
46 49 49 49 56 64 74 81 85 72 64 62 57 55 57 53 55 60 57 57 55 54 58 50 50 48 41 41 48 47 41 39
46 50 52 58 62 68 75 77 76 62 54 54 52 55 55 53 54 54 54 57 54 53 53 51 47 43 37 44 46 47 45 43
43 49 58 63 70 76 69 64 56 54 51 47 47 42 40 43 46 48 53 56 53 50 47 49 49 48 48 47 43 49 47 45
44 51 58 57 58 56 50 51 48 50 52 46 50 45 50 51 51 54 54 52 52 46 46 50 52 50 48 50 51 51 48 46
42 44 44 45 53 54 52 45 45 49 50 52 51 53 49 45 44 41 33 32 34 38 41 44 48 48 49 49 51 51 50 56
35 33 33 39 48 52 52 43 45 50 53 54 55 50 44 38 37 34 38 36 34 34 42 47 47 47 46 47 60 60 54 60
30 29 31 37 43 46 43 44 46 51 51 47 42 38 36 36 39 41 35 35 38 42 42 44 45 46 45 44 47 55 56 66
28 29 31 37 42 45 44 44 45 47 43 39 42 42 44 39 37 37 36 39 35 32 38 38 38 38 42 45 46 57 59 62
29 30 34 39 43 47 47 44 41 42 40 41 44 46 41 34 36 37 38 37 39 39 40 40 44 45 45 44 48 53 64 70
30 32 37 41 44 49 48 40 37 36 39 45 44 40 35 36 36 36 36 40 41 40 41 45 47 45 44 56 59 67 62 60
28 33 38 42 46 45 42 37 33 38 41 41 45 35 31 33 34 35 39 43 44 41 45 48 47 52 61 66 62 58 62 62
28 34 39 42 43 40 38 35 34 38 43 39 32 31 32 34 33 37 42 44 43 45 48 48 51 54 59 62 60 63 63 63
31 34 39 40 39 38 36 34 38 45 34 34 26 29 35 34 37 42 45 46 46 49 50 50 55 56 56 59 61 58 63 58
34 36 37 38 37 37 35 36 43 38 43 29 27 32 36 37 42 46 46 47 50 51 48 54 61 63 59 66 61 57 48 44
33 35 36 36 37 36 35 39 42 42 36 29 32 32 34 38 43 47 45 45 47 49 50 55 57 57 62 64 59 60 54 45
32 34 35 36 35 36 38 43 42 34 29 31 32 32 38 40 41 40 42 46 50 50 53 59 66 66 78 66 58 62 56 50
30 33 36 36 35 38 38 36 34 32 31 31 30 36 39 40 40 41 44 48 50 51 54 61 68 65 76 65 59 66 55 56
Wind_Speed
11 12 13 16 17 17 19 20 19 19 17 9 10 4 5 6 6 6 6 4 4 3 1 2 5 7 8 10 13 16 17 21
11 12 12 15 18 18 19 20 18 16 9 7 7 7 8 6 6 5 5 5 4 2 2 4 6 8 8 11 14 17 18 19
13 13 15 16 17 18 19 17 16 13 8 10 9 10 9 7 6 7 6 5 3 0 3 5 6 10 12 13 15 16 18 18
12 15 16 16 16 18 19 17 17 13 13 12 11 9 7 7 7 5 5 3 2 2 4 7 9 12 14 14 14 15 19 19
14 16 15 17 17 17 17 19 17 14 14 13 12 11 8 6 4 4 4 3 3 5 7 9 11 13 14 15 15 15 18 21
15 18 21 21 21 20 17 15 16 15 12 10 8 5 2 3 3 3 4 6 7 8 10 11 14 16 17 17 17 17 19 21
16 19 20 18 16 16 17 17 15 13 11 8 6 7 4 4 4 5 6 7 10 11 12 15 16 19 19 18 16 19 19 19
16 17 19 19 17 16 17 16 14 12 11 10 9 8 5 4 4 5 6 9 10 12 14 17 17 18 19 19 15 18 23 19
16 18 18 18 17 17 17 15 14 13 12 10 8 6 4 2 3 5 6 8 10 12 13 15 17 19 20 21 19 18 21 17
17 19 18 17 18 17 17 17 16 14 12 10 8 5 3 4 4 4 6 7 9 11 14 17 19 20 21 22 22 17 21 20
16 18 18 18 17 16 16 16 15 14 13 10 6 4 6 5 5 5 6 7 10 13 15 17 18 19 19 21 19 19 19 18
15 17 19 18 18 18 18 17 17 15 12 8 6 6 7 7 6 5 6 8 12 14 16 17 17 18 17 14 17 18 19 13
16 19 19 19 19 20 20 18 17 14 10 8 7 9 8 8 7 7 8 11 13 15 16 16 17 16 17 17 17 13 10 12
15 17 18 20 20 20 19 18 16 13 9 9 9 10 9 9 9 9 10 13 15 16 15 16 16 16 14 12 9 7 10 10
15 14 18 20 21 21 19 18 15 11 10 8 12 8 9 10 10 10 12 14 15 15 15 15 13 14 10 9 8 8 9 13
15 15 16 21 20 20 19 17 12 11 10 12 10 9 9 10 10 11 13 14 14 15 15 12 11 10 8 4 8 11 14 17
15 16 18 20 20 20 19 14 13 12 12 11 9 9 10 10 11 12 14 14 15 16 14 11 11 10 8 9 8 11 15 16
15 15 18 18 19 19 16 16 13 11 11 9 9 9 9 10 12 14 14 15 15 16 14 12 12 9 10 9 9 11 15 13
12 14 17 17 17 15 16 13 9 11 9 8 8 9 10 11 13 15 15 15 16 16 13 11 11 9 12 10 11 12 13 12
Wind_Direction
160 182 187 184 168 167 167 163 159 154 161 181 228 251 190 182 134 152 148 149 156 173 175 333 342 319 323 328 328 328 322 319
177 191 180 183 166 177 179 165 170 165 172 168 181 170 172 163 163 156 163 164 161 159 297 325 321 316 318 323 327 327 327 325
181 185 185 188 176 175 181 177 181 184 194 170 163 164 164 165 166 170 170 162 161 10 334 316 311 317 320 320 324 322 321 327
178 189 182 178 181 181 177 179 183 188 161 156 153 154 151 171 176 175 165 172 198 300 312 315 314 313 314 313 312 311 319 315
182 181 173 176 166 172 176 182 177 167 167 169 177 187 191 166 172 186 197 211 273 300 306 309 308 308 305 302 303 311 303 312
175 169 174 173 166 173 176 167 165 165 174 180 183 214 148 126 155 177 245 259 269 288 296 298 299 298 296 295 292 288 296 304
158 155 153 149 161 168 161 169 164 170 169 164 171 157 165 181 220 266 277 293 294 297 301 302 300 295 291 291 293 294 299 296
157 156 159 154 156 161 166 171 167 167 158 150 149 151 167 181 224 273 298 297 304 308 312 305 302 299 296 292 283 279 285 291
167 166 164 165 167 170 174 172 170 166 160 157 155 154 183 227 240 283 299 303 306 309 304 303 301 297 294 290 286 275 284 295
177 176 176 176 179 179 183 178 178 174 167 163 157 168 156 234 243 270 289 299 301 303 304 304 303 301 297 294 289 289 285 289
186 183 184 183 186 180 183 186 174 171 171 167 170 183 210 220 246 267 291 297 300 304 306 306 306 304 298 293 294 297 292 293
190 192 188 191 186 181 185 182 176 178 177 176 184 201 214 235 256 275 288 293 301 304 304 305 305 302 301 304 296 294 296 290
194 196 190 195 188 189 189 183 183 181 180 178 205 216 231 249 268 275 284 295 301 304 305 302 304 308 305 298 299 300 304 305
201 195 198 200 196 196 188 189 186 176 196 197 218 230 247 267 272 273 283 296 301 303 300 304 310 307 300 297 302 298 292 296
207 202 203 203 202 200 195 193 183 199 193 215 236 248 266 272 268 271 285 296 299 297 300 301 301 298 297 289 295 296 305 299
213 212 206 206 202 202 202 192 193 179 217 225 244 257 266 266 265 273 287 291 291 293 298 304 293 291 275 309 305 300 311 309
215 216 213 208 204 207 200 182 191 204 214 230 251 264 267 267 272 283 287 290 292 294 294 290 290 285 260 277 278 306 311 305
220 220 218 210 208 206 181 192 202 199 222 242 260 266 264 270 278 283 287 292 293 289 286 280 271 270 239 262 285 308 308 304
228 220 216 209 211 184 194 195 189 211 236 261 266 262 268 275 282 284 283 288 293 287 281 274 266 262 235 262 289 308 301 299